FW3572 Weather Reports


time (UTC)temp
F
wind
direction
speed
knots
gust
knots
rain 1hr
in
rain 24hr
in
rain mn
in
humidity
%
barometer
mb
20260509005541 80 146 2.6 7.8 0.00 0.00 0.00 100 1015.2
20260509005042 79 132 3.5 7.8 0.00 0.00 0.00 100 1015.1
20260509004604 80 141 4.3 8.7 0.00 0.00 0.00 100 1015.0
20260509004041 79 132 4.3 8.7 0.00 0.00 0.00 100 1015.0
20260509003541 80 161 2.6 7.8 0.00 0.00 0.00 100 1015.1
20260509003045 80 148 2.6 7.0 0.00 0.00 0.00 100 1014.9
20260509002543 80 144 2.6 8.7 0.00 0.00 0.00 100 1014.8
20260509002040 80 157 2.6 8.7 0.00 0.00 0.00 100 1014.7
20260509001543 80 132 3.5 8.7 0.00 0.00 0.00 100 1014.7
20260509001046 80 161 3.5 8.7 0.00 0.00 0.00 100 1014.7
20260509000542 80 134 4.3 8.7 0.00 0.00 0.00 100 1014.6
20260509000040 80 121 1.7 8.7 0.00 0.00 0.00 100 1014.6
20260508235541 80 161 4.3 8.7 0.00 0.00 0.00 100 1014.5
20260508235040 80 150 1.7 8.7 0.00 0.00 0.00 100 1014.3
20260508234545 80 148 2.6 8.7 0.00 0.00 0.00 100 1014.2
20260508234040 80 183 4.3 8.7 0.00 0.00 0.00 100 1014.2
20260508233540 80 130 2.6 7.8 0.00 0.00 0.00 100 1014.2
20260508233039 80 163 3.5 7.8 0.00 0.00 0.00 100 1014.2
20260508232541 80 146 4.3 7.8 0.00 0.00 0.00 100 1014.2
20260508232040 80 153 2.6 9.6 0.00 0.00 0.00 100 1014.1
20260508231538 80 136 3.5 9.6 0.00 0.00 0.00 100 1014.1
20260508231038 80 150 4.3 9.6 0.00 0.00 0.00 100 1014.1
20260508230539 80 146 4.3 9.6 0.00 0.00 0.00 100 1013.9
20260508230051 80 136 5.2 8.7 0.00 0.00 0.00 100 1013.9
20260508225538 81 157 3.5 8.7 0.00 0.00 0.00 100 1013.9
20260508225041 80 156 3.5 8.7 0.00 0.00 0.00 100 1013.9
20260508224537 81 142 3.5 12.2 0.00 0.00 0.00 100 1013.9
20260508224037 81 130 5.2 12.2 0.00 0.00 0.00 100 1013.7
20260508223536 80 150 7.0 12.2 0.00 0.00 0.00 100 1013.8
20260508223037 81 113 3.5 10.4 0.00 0.00 0.00 100 1013.7
20260508222540 81 136 3.5 10.4 0.00 0.00 0.00 100 1013.6
20260508222037 81 132 4.3 7.8 0.00 0.00 0.00 100 1013.6
20260508221537 81 113 3.5 8.7 0.00 0.00 0.00 100 1013.9
20260508221037 81 126 4.3 9.6 0.00 0.00 0.00 100 1013.9
20260508220535 81 165 4.3 9.6 0.00 0.00 0.00 100 1013.9
20260508220033 81 128 5.2 9.6 0.00 0.00 0.00 100 1013.9
20260508215537 81 150 4.3 9.6 0.00 0.00 0.00 100 1014.0
20260508215034 82 166 4.3 9.6 0.00 0.00 0.00 100 1014.0
20260508214534 82 132 2.6 11.3 0.00 0.00 0.00 100 1013.9
20260508214033 81 134 4.3 11.3 0.00 0.00 0.00 100 1014.1
20260508213533 82 152 3.5 8.7 0.00 0.00 0.00 100 1014.0
20260508213033 82 157 4.3 9.6 0.00 0.00 0.00 100 1014.0
20260508212533 82 153 2.6 10.4 0.00 0.00 0.00 100 1013.9
20260508212032 82 142 3.5 9.6 0.00 0.00 0.00 100 1014.1
20260508211535 82 138 2.6 8.7 0.00 0.00 0.00 100 1014.0
20260508211031 82 146 4.3 11.3 0.00 0.00 0.00 100 1014.1
20260508210533 82 130 3.5 11.3 0.00 0.00 0.00 100 1014.1
20260508210035 83 162 3.5 8.7 0.00 0.00 0.00 100 1014.1
20260508205530 82 140 2.6 9.6 0.00 0.00 0.00 100 1014.3
20260508205031 82 103 4.3 11.3 0.00 0.00 0.00 100 1014.5
20260508204530 82 107 6.1 11.3 0.00 0.00 0.00 100 1014.5
20260508204028 82 156 4.3 10.4 0.00 0.00 0.00 100 1014.6
20260508203529 83 86 3.5 10.4 0.00 0.00 0.00 100 1014.5
20260508203028 83 134 2.6 8.7 0.00 0.00 0.00 100 1014.5
20260508202528 83 128 2.6 8.7 0.00 0.00 0.00 100 1014.6
20260508202028 82 113 6.1 9.6 0.00 0.00 0.00 100 1014.5
20260508201527 83 148 4.3 11.3 0.00 0.00 0.00 100 1014.6
20260508201026 82 165 5.2 11.3 0.00 0.00 0.00 100 1014.8
20260508200526 82 112 4.3 10.4 0.00 0.00 0.00 100 1014.8
20260508200037 83 178 5.2 13.0 0.00 0.00 0.00 100 1015.0
20260508195525 83 113 5.2 13.0 0.00 0.00 0.00 100 1014.9
20260508195027 82 111 3.5 13.0 0.00 0.00 0.00 100 1015.0
20260508194524 82 146 5.2 13.0 0.00 0.00 0.00 100 1015.1
20260508194023 82 170 5.2 13.0 0.00 0.00 0.00 100 1015.3
20260508193523 84 96 4.3 12.2 0.00 0.00 0.00 100 1015.4
20260508193025 84 49 2.6 9.6 0.00 0.00 0.00 100 1015.4
20260508192524 83 123 3.5 9.6 0.00 0.00 0.00 100 1015.5
20260508192024 83 115 3.5 9.6 0.00 0.00 0.00 100 1015.5
20260508191524 83 159 3.5 10.4 0.00 0.00 0.00 100 1015.6
20260508191022 83 94 5.2 10.4 0.00 0.00 0.00 100 1015.6
20260508190522 83 111 4.3 10.4 0.00 0.00 0.00 100 1015.6
20260508190023 83 132 3.5 10.4 0.00 0.00 0.00 100 1015.7
20260508185524 84 123 3.5 7.0 0.00 0.00 0.00 100 1015.8
20260508185021 84 73 2.6 7.8 0.00 0.00 0.00 100 1016.0
20260508184544 84 27 1.7 7.8 0.00 0.00 0.00 100 1015.9
20260508184021 85 97 1.7 7.0 0.00 0.00 0.00 100 1016.0
20260508183522 84 46 2.6 7.8 0.00 0.00 0.00 100 1016.1
20260508183021 84 123 2.6 8.7 0.00 0.00 0.00 100 1016.0
20260508182521 84 104 4.3 9.6 0.00 0.00 0.00 100 1016.1
20260508182020 84 82 3.5 10.4 0.00 0.00 0.00 100 1016.1
20260508181538 84 112 1.7 8.7 0.00 0.00 0.00 100 1016.2
20260508181019 84 163 3.5 10.4 0.00 0.00 0.00 100 1016.2
20260508180519 84 94 3.5 10.4 0.00 0.00 0.00 100 1016.2
20260508180020 84 88 1.7 10.4 0.00 0.00 0.00 100 1016.2
20260508175519 85 90 2.6 7.8 0.00 0.00 0.00 100 1016.2
20260508175019 85 72 2.6 6.1 0.00 0.00 0.00 100 1016.3
20260508174519 84 26 1.7 7.0 0.00 0.00 0.00 100 1016.4
20260508174019 84 57 3.5 9.6 0.00 0.00 0.00 100 1016.4
20260508173518 85 109 3.5 9.6 0.00 0.00 0.00 100 1016.4
20260508173018 86 117 2.6 8.7 0.00 0.00 0.00 100 1016.4
20260508172517 86 25 2.6 7.8 0.00 0.00 0.00 100 1016.3
20260508172118 86 12 2.6 8.7 0.00 0.00 0.00 100 1016.4
20260508171517 85 31 1.7 8.7 0.00 0.00 0.00 100 1016.5
20260508171016 85 71 1.7 7.0 0.00 0.00 0.00 100 1016.5
20260508170518 85 149 2.6 7.0 0.00 0.00 0.00 100 1016.7
20260508170017 86 128 2.6 9.6 0.00 0.00 0.00 100 1016.8
20260508165517 85 355 3.5 9.6 0.00 0.00 0.00 100 1016.8
20260508165016 85 49 2.6 8.7 0.00 0.00 0.00 100 1016.9
20260508164516 86 128 2.6 8.7 0.00 0.00 0.00 100 1016.9
20260508164015 86 345 1.7 9.6 0.00 0.00 0.00 100 1016.8
20260508163513 86 36 2.6 9.6 0.00 0.00 0.00 100 1016.9
20260508163012 86 110 1.7 7.8 0.00 0.00 0.00 100 1016.9
20260508162512 85 157 1.7 9.6 0.00 0.00 0.00 100 1016.9
20260508162015 86 5 3.5 9.6 0.00 0.00 0.00 100 1017.1
20260508161512 85 337 1.7 10.4 0.00 0.00 0.00 100 1017.2
20260508161011 85 37 2.6 10.4 0.00 0.00 0.00 100 1017.2
20260508160510 84 232 2.6 10.4 0.00 0.00 0.00 100 1017.3
20260508160032 85 9 1.7 7.8 0.00 0.00 0.00 100 1017.3
20260508155510 85 26 1.7 7.8 0.00 0.00 0.00 100 1017.3
20260508155009 84 9 2.6 7.8 0.00 0.00 0.00 100 1017.3
20260508154512 85 116 0.9 6.1 0.00 0.00 0.00 100 1017.3
20260508154009 85 10 1.7 7.0 0.00 0.00 0.00 100 1017.4
20260508153510 84 34 1.7 7.0 0.00 0.00 0.00 100 1017.5
20260508153009 86 128 1.7 8.7 0.00 0.00 0.00 100 1017.4
20260508152508 86 350 1.7 8.7 0.00 0.00 0.00 100 1017.5
20260508152007 85 31 1.7 7.0 0.00 0.00 0.00 100 1017.4
20260508151511 83 73 0.9 7.0 0.00 0.00 0.00 100 1017.5
20260508151007 84 349 2.6 7.0 0.00 0.00 0.00 100 1017.5
20260508150505 83 355 0.9 7.0 0.00 0.00 0.00 100 1017.5
20260508150011 84 355 1.7 7.0 0.00 0.00 0.00 100 1017.6
20260508145505 85 322 0.0 5.2 0.00 0.00 0.00 100 1017.6
20260508145004 85 5 1.7 8.7 0.00 0.00 0.00 100 1017.5
20260508144504 85 11 4.3 8.7 0.00 0.00 0.00 100 1017.6
20260508144004 85 12 0.9 5.2 0.00 0.00 0.00 100 1017.6
20260508143503 84 332 1.7 5.2 0.00 0.00 0.00 100 1017.5
20260508143000 84 286 1.7 5.2 0.00 0.00 0.00 100 1017.6
20260508142559 84 319 0.9 7.0 0.00 0.00 0.00 100 1017.5
20260508142059 83 355 2.6 7.0 0.00 0.00 0.00 100 1017.6
20260508141607 83 321 1.7 5.2 0.00 0.00 0.00 100 1017.5
20260508141057 83 338 1.7 5.2 0.00 0.00 0.00 100 1017.6
20260508140555 82 318 0.9 7.8 0.00 0.00 0.00 100 1017.5
20260508140056 82 331 0.9 7.8 0.00 0.00 0.00 100 1017.6
20260508135555 81 337 1.7 5.2 0.00 0.00 0.00 100 1017.6
20260508135055 81 350 2.6 5.2 0.00 0.00 0.00 100 1017.5
20260508134558 81 307 1.7 4.3 0.00 0.00 0.00 100 1017.5
20260508134052 81 315 1.7 5.2 0.00 0.00 0.00 100 1017.5
20260508133550 81 315 1.7 7.8 0.00 0.00 0.00 100 1017.5
20260508133116 80 348 2.6 7.8 0.00 0.00 0.00 100 1017.5
20260508132547 79 319 1.7 5.2 0.00 0.00 0.00 100 1017.4
20260508132048 79 286 0.9 3.5 0.00 0.00 0.00 100 1017.4
20260508131548 79 11 0.9 3.5 0.00 0.00 0.00 100 1017.4
20260508131046 78 287 0.0 2.6 0.00 0.00 0.00 100 1017.5
20260508130543 78 265 0.0 2.6 0.00 0.00 0.00 100 1017.3
20260508130043 77 276 0.0 2.6 0.00 0.00 0.00 100 1017.3
20260508125544 77 252 0.0 1.7 0.00 0.00 0.00 100 1017.3
20260508125043 77 250 0.0 2.6 0.00 0.00 0.00 100 1017.4
20260508124543 76 265 0.0 2.6 0.00 0.00 0.00 100 1017.4
20260508124041 76 286 0.0 0.0 0.00 0.00 0.00 100 1017.4
20260508123541 75 295 0.0 0.0 0.00 0.00 0.00 100 1017.3
20260508123055 75 301 0.0 0.0 0.00 0.00 0.00 100 1017.3
20260508122541 75 300 0.0 1.7 0.00 0.00 0.00 100 1017.2
20260508122040 74 302 0.0 1.7 0.00 0.00 0.00 100 1017.2
20260508121540 74 304 0.0 1.7 0.00 0.00 0.00 100 1017.3
20260508121038 74 307 0.0 2.6 0.00 0.00 0.00 100 1017.3
20260508120537 73 306 0.0 2.6 0.00 0.00 0.00 100 1017.2
20260508120037 73 274 0.0 2.6 0.00 0.00 0.00 100 1017.2
20260508115538 72 273 0.0 2.6 0.00 0.00 0.00 100 1017.1
20260508115037 72 309 0.0 2.6 0.00 0.00 0.00 100 1017.0
20260508114536 72 298 0.0 1.7 0.00 0.00 0.00 100 1017.0
20260508114035 72 298 0.0 1.7 0.00 0.00 0.00 100 1016.8
20260508113535 71 296 0.0 2.6 0.00 0.00 0.00 100 1016.8
20260508113043 71 297 0.9 4.3 0.00 0.00 0.00 100 1016.8
20260508112534 71 298 0.9 4.3 0.00 0.00 0.00 100 1016.7
20260508112033 71 277 0.0 1.7 0.00 0.00 0.00 100 1016.6
20260508111535 71 277 0.0 1.7 0.00 0.00 0.00 100 1016.5
20260508111032 71 277 0.0 1.7 0.00 0.00 0.00 100 1016.5
20260508110531 70 277 0.0 0.9 0.00 0.00 0.00 100 1016.4
20260508110047 70 274 0.0 0.0 0.00 0.00 0.00 100 1016.3
20260508105530 70 275 0.0 0.0 0.00 0.00 0.00 100 1016.2
20260508105033 70 257 0.0 0.0 0.00 0.00 0.00 100 1016.2
20260508104530 70 250 0.0 0.0 0.00 0.00 0.00 100 1016.1
20260508104030 70 250 0.0 0.0 0.00 0.00 0.00 100 1016.1
20260508103530 70 248 0.0 0.0 0.00 0.00 0.00 100 1016.0
20260508103029 70 248 0.0 0.0 0.00 0.00 0.00 100 1015.8
20260508102530 70 248 0.0 0.0 0.00 0.00 0.00 100 1015.7
20260508102031 70 247 0.0 0.0 0.00 0.00 0.00 100 1015.6
20260508101530 70 246 0.0 0.0 0.00 0.00 0.00 100 1015.6
20260508101029 70 246 0.0 0.0 0.00 0.00 0.00 100 1015.5
20260508100529 70 246 0.0 0.0 0.00 0.00 0.00 100 1015.4
20260508100031 70 245 0.0 0.9 0.00 0.00 0.00 100 1015.4
20260508095529 70 245 0.0 0.9 0.00 0.00 0.00 100 1015.4
20260508095029 70 243 0.0 0.0 0.00 0.00 0.00 100 1015.3
20260508094528 70 243 0.0 0.0 0.00 0.00 0.00 100 1015.4
20260508094028 70 243 0.0 0.0 0.00 0.00 0.00 100 1015.3
20260508093529 70 243 0.0 0.0 0.00 0.00 0.00 100 1015.3
20260508093035 69 243 0.0 0.0 0.00 0.00 0.00 100 1015.4
20260508092529 69 243 0.0 2.6 0.00 0.00 0.00 100 1015.2
20260508092028 69 243 0.9 2.6 0.00 0.00 0.00 100 1015.3
20260508091529 69 243 0.9 2.6 0.00 0.00 0.00 100 1015.3
20260508091027 70 243 0.9 2.6 0.00 0.00 0.00 100 1015.3
20260508090527 70 241 0.0 0.0 0.00 0.00 0.00 100 1015.3
20260508090029 70 242 0.0 0.0 0.00 0.00 0.00 100 1015.2
20260508085526 70 242 0.0 0.0 0.00 0.00 0.00 100 1015.2
20260508085025 70 242 0.0 0.0 0.00 0.00 0.00 100 1015.3
20260508084526 70 241 0.0 0.0 0.00 0.00 0.00 100 1015.2
20260508084025 70 241 0.0 0.0 0.00 0.00 0.00 100 1015.2
20260508083524 70 241 0.0 0.0 0.00 0.00 0.00 100 1015.2
20260508083025 70 242 0.0 0.0 0.00 0.00 0.00 100 1015.2
20260508082527 70 241 0.0 0.0 0.00 0.00 0.00 100 1015.1
20260508082025 70 241 0.0 0.0 0.00 0.00 0.00 100 1015.2
20260508081523 70 240 0.0 0.0 0.00 0.00 0.00 100 1015.2
20260508081026 70 240 0.0 0.0 0.00 0.00 0.00 100 1015.2
20260508080526 71 240 0.0 1.7 0.00 0.00 0.00 100 1015.1
20260508080021 71 240 0.0 1.7 0.00 0.00 0.00 100 1015.3
20260508075523 71 240 0.0 1.7 0.00 0.00 0.00 100 1015.3
20260508075020 71 240 0.0 4.3 0.00 0.00 0.00 100 1015.3
20260508074522 71 240 1.7 4.3 0.00 0.00 0.00 100 1015.3
20260508074019 71 242 0.0 0.0 0.00 0.00 0.00 100 1015.3
20260508073519 71 242 0.0 0.0 0.00 0.00 0.00 100 1015.4
20260508073019 71 242 0.0 0.0 0.00 0.00 0.00 100 1015.3
20260508072518 72 242 0.0 0.0 0.00 0.00 0.00 100 1015.3
20260508072020 72 242 0.0 2.6 0.00 0.00 0.00 100 1015.3
20260508071520 72 241 0.9 2.6 0.00 0.00 0.00 100 1015.3
20260508071016 72 242 0.0 3.5 0.00 0.00 0.00 100 1015.4
20260508070516 72 240 0.0 3.5 0.00 0.00 0.00 100 1015.4
20260508070015 72 240 0.9 2.6 0.00 0.00 0.00 100 1015.4
20260508065518 72 240 0.0 2.6 0.00 0.00 0.00 100 1015.4
20260508065015 73 240 0.0 3.5 0.00 0.00 0.00 100 1015.4
20260508064515 73 240 0.0 0.0 0.00 0.00 0.00 100 1015.4
20260508064012 73 239 0.0 0.0 0.00 0.00 0.00 100 1015.6
20260508063512 73 240 0.0 0.0 0.00 0.00 0.00 100 1015.7
20260508063011 73 240 0.0 0.0 0.00 0.00 0.00 100 1015.6
20260508062510 73 240 0.0 0.0 0.00 0.00 0.00 100 1015.8
20260508062009 73 240 0.0 0.0 0.00 0.00 0.00 100 1015.7
20260508061510 74 239 0.0 0.0 0.00 0.00 0.00 100 1015.8
20260508061014 74 240 0.0 3.5 0.00 0.00 0.00 100 1015.8
20260508060508 74 239 0.0 3.5 0.00 0.00 0.00 100 1015.8
20260508060009 74 239 0.9 4.3 0.00 0.00 0.00 100 1016.0
20260508055508 74 240 0.9 3.5 0.00 0.00 0.00 100 1016.0
20260508055006 74 240 0.0 3.5 0.00 0.00 0.00 100 1016.1
20260508054506 74 235 0.9 4.3 0.00 0.00 0.00 100 1016.1
20260508054005 74 234 0.9 4.3 0.00 0.00 0.00 100 1016.1
20260508053504 74 234 0.9 3.5 0.00 0.00 0.00 100 1016.2
20260508053005 75 234 0.0 3.5 0.00 0.00 0.00 100 1016.2
20260508052505 75 234 0.0 3.5 0.00 0.00 0.00 100 1016.1
20260508052004 75 232 0.0 4.3 0.00 0.00 0.00 100 1016.2
20260508051504 75 240 0.9 4.3 0.00 0.00 0.00 100 1016.1
20260508051005 75 229 0.9 4.3 0.00 0.00 0.00 100 1016.0
20260508050505 75 240 0.9 4.3 0.00 0.00 0.00 100 1016.1
20260508050002 75 234 1.7 4.3 0.00 0.00 0.00 100 1016.1
20260508045502 75 213 0.9 3.5 0.00 0.00 0.00 100 1016.1
20260508045001 75 217 1.7 4.3 0.00 0.00 0.00 100 1016.2
20260508044602 75 246 0.9 4.3 0.00 0.00 0.00 100 1016.4
20260508044059 75 229 1.7 3.5 0.00 0.00 0.00 100 1016.2
20260508043601 75 237 0.9 3.5 0.00 0.00 0.00 100 1015.9
20260508043104 76 220 0.9 3.5 0.00 0.00 0.00 100 1015.9
20260508042558 76 228 1.7 3.5 0.00 0.00 0.00 100 1015.8
20260508042056 76 225 0.9 7.0 0.00 0.00 0.00 100 1015.8
20260508041616 76 234 0.9 3.5 0.00 0.00 0.00 100 1015.8
20260508041058 76 238 1.7 3.5 0.00 0.00 0.00 100 1015.8
20260508040555 76 241 0.9 3.5 0.00 0.00 0.00 100 1015.8
20260508040109 77 229 0.0 2.6 0.00 0.00 0.00 100 1015.8
20260508035554 77 229 0.9 3.5 0.00 0.00 0.00 100 1015.9
20260508035053 77 229 0.0 3.5 0.00 0.00 0.00 100 1015.9
20260508034553 77 216 0.9 3.5 0.00 0.00 0.00 100 1015.8
20260508034056 77 215 1.7 3.5 0.00 0.00 0.00 100 1015.8
20260508033553 77 229 0.9 3.5 0.00 0.00 0.00 100 1016.0
20260508033052 77 209 1.7 4.3 0.00 0.00 0.00 100 1015.9
20260508032554 78 214 0.9 3.5 0.00 0.00 0.00 100 1016.0
20260508032054 78 219 0.9 3.5 0.00 0.00 0.00 100 1015.8
20260508031556 78 240 0.9 4.3 0.00 0.00 0.00 100 1015.8
20260508031054 78 243 0.9 4.3 0.00 0.00 0.00 100 1015.7
20260508030551 78 240 1.7 3.5 0.00 0.00 0.00 100 1015.7
20260508030051 78 239 0.9 4.3 0.00 0.00 0.00 100 1015.7
20260508025550 78 214 1.7 4.3 0.00 0.00 0.00 100 1015.7
20260508025053 78 198 1.7 5.2 0.00 0.00 0.00 100 1015.6
20260508024604 79 172 1.7 5.2 0.00 0.00 0.00 100 1015.6
20260508024052 79 242 0.9 3.5 0.00 0.00 0.00 100 1015.6
20260508023550 79 182 1.7 3.5 0.00 0.00 0.00 100 1015.6
20260508023051 79 210 0.9 3.5 0.00 0.00 0.00 100 1015.7
20260508022553 79 192 0.9 5.2 0.00 0.00 0.00 100 1015.6
20260508022050 79 200 1.7 5.2 0.00 0.00 0.00 100 1015.5
20260508021550 80 191 0.9 3.5 0.00 0.00 0.00 100 1015.4
20260508021048 80 181 1.7 3.5 0.00 0.00 0.00 100 1015.4
20260508020550 80 193 1.7 6.1 0.00 0.00 0.00 100 1015.3
20260508020052 80 166 2.6 6.1 0.00 0.00 0.00 100 1015.2
20260508015549 80 163 3.5 7.8 0.00 0.00 0.00 100 1015.2
20260508015048 80 140 4.3 8.7 0.00 0.00 0.00 100 1015.2
20260508014548 80 159 3.5 9.6 0.00 0.00 0.00 100 1015.1
20260508014051 80 157 4.3 9.6 0.00 0.00 0.00 100 1015.1
20260508013548 80 163 2.6 8.7 0.00 0.00 0.00 100 1015.2
20260508013051 80 173 4.3 7.8 0.00 0.00 0.00 100 1015.1
20260508012551 80 159 0.9 9.6 0.00 0.00 0.00 100 1015.1
20260508012048 80 148 3.5 10.4 0.00 0.00 0.00 100 1015.1
20260508011555 80 187 6.1 10.4 0.00 0.00 0.00 100 1015.0
20260508011046 80 150 3.5 7.8 0.00 0.00 0.00 100 1015.0
20260508010548 80 165 3.5 9.6 0.00 0.00 0.00 100 1015.0
20260508010047 80 126 4.3 9.6 0.00 0.00 0.00 100 1015.0